Weather in Novotroitskoye

Russia / Jewish Autonomous Oblast     48°15′13″N   131°57′39″E
temp.,
°C
wind,
m/s
gust,
m/s
humid.,
%
clouds,
%
prec.,
mm/h
press.,
hPa
HPBL,
m
6 may, thu
thu601:00+5sse229313 0.1 99724
04:00+5se119682 0.3 99714
07:00+6wnw019254 0.0 99878
10:00+11sw346734 0.0 999884
13:00+14wsw6847100 0.5 9991639
16:00+17w573596 0.5 9982403
19:00+16wnw45377 0.0 999882
22:00+11n225129 0.0 99911
7 may, fri
fri701:00+9n33718 0.0 100121
04:00+7n3380100 0.0 100044
07:00+8nne3781100 0.0 1000182
10:00+13ene5558100 0.0 999702
13:00+12ene8962100 0.1 997774
16:00+12ene81061100 0.2 993770
19:00+9e71282100 3.4 992841
22:00+7ene111787100 7.8 991669
8 may, sat
sat801:00+6ene101787100 2.8 989556
04:00+5ene81489100 3.0 989706
07:00+4ene6990100 1.3 990464
10:00+5ene4591100 2.9 992447
13:00+6ene5788100 1.0 993550
16:00+7ene6885100 1.4 993544
19:00+6ene91588100 1.1 993628
22:00+4ene101891100 5.2 993708
9 may, sun
sun901:00+4ne91789100 1.5 992851
04:00+4ne91686100 5.6 990908
07:00+3nne91697100 6.6 9911003
10:00+3nne81497100 14.4 993866
13:00+4n71297100 5.9 995831
16:00+5n5995100 8.5 997857
19:00+5n4793100 0.8 999748
22:00+5nne2694100 1.4 1001192
10 may, mon
mon1001:00+6n2392100 0.2 100261
04:00+5n3594100 0.3 1004160
07:00+6n2394100 0.1 100575
10:00+7wnw2290100 0.1 1007214
13:00+7w2286100 0.0 1009345
16:00+9s2281100 0.0 1009406
19:00+10ssw2379100 0.0 1010414
22:00+8s2287100 0.0 101226